Charlottesville, VA

4:35 PM EDT on May 22, 2017 (GMT -0400)
Charlottesville-Albemarle

Weather History for KCHO - April, 2014

Change the Weather History Date:

Friday, April 11, 2014

  Actual Average Record
Temperature  
Mean Temperature 68 °F 54 °F  
Max Temperature 81 °F 66 °F 93 °F (1930)
Min Temperature 55 °F 42 °F 24 °F (1909)
Degree Days  
Heating Degree Days 0 11  
Month to date heating degree days 109 139  
Since 1 July heating degree days 4345 4143  
Cooling Degree Days 3 1  
Month to date cooling degree days 3 3  
Year to date cooling degree days 3 5  
Growing Degree Days 18 (Base 50)    
Moisture  
Dew Point 39 °F    
Average Humidity 46    
Maximum Humidity 72    
Minimum Humidity 20    
Precipitation  
Precipitation T in 0.12 in 0.56 in (1981)
Month to date precipitation 0.79 1.27  
Year to date precipitation 8.37 10.40  
Sea Level Pressure  
Sea Level Pressure 30.01 in    
Wind  
Wind Speed 9 mph (SSW)    
Max Wind Speed 23 mph    
Max Gust Speed 28 mph    
Visibility 10 miles    
Events Rain    
T = Trace of Precipitation, MM = Missing Value Source: NWS Daily Summary

Daily Weather History Graph

Daily Weather History Graph

Search for Another Location

Airport or City:

Trip Planner

Search our weather history database for the weather conditions in past years. The results will help you decide how hot, cold, wet, or windy it might be!

Date:

Astronomy

Apr. 11, 2014 Rise Set
Actual Time 6:44 AM EDT 7:46 PM EDT
Civil Twilight 6:17 AM EDT 8:13 PM EDT
Nautical Twilight 5:44 AM EDT 8:45 PM EDT
Astronomical Twilight 5:11 AM EDT 9:18 PM EDT
Moon 4:27 PM EDT (4/11) 4:34 AM EDT (4/11)
Length of Visible Light 13h 56m
Length of Day
13h 02m
Waxing Gibbous, 87% of the Moon is Illuminated
Apr 11
Waxing Gibbous
Apr 15
Full
Apr 22
Last Quarter
Apr 29
New
May 6
First Quarter

Hourly Weather History & Observations

Time (EDT) Temp. Dew Point Humidity Pressure Visibility Wind Dir Wind Speed Gust Speed Precip Events Conditions
12:53 AM 55.9 °F 35.1 °F 45% 30.05 in 10.0 mi SSW 10.4 mph - N/A   Clear
1:53 AM 61.0 °F 33.1 °F 35% 30.03 in 10.0 mi SSW 9.2 mph - N/A   Clear
2:53 AM 60.1 °F 33.1 °F 36% 30.02 in 10.0 mi South 11.5 mph - N/A   Clear
3:53 AM 59.0 °F 34.0 °F 39% 30.03 in 10.0 mi South 10.4 mph - N/A   Clear
4:53 AM 55.9 °F 35.1 °F 45% 30.04 in 10.0 mi SSW 6.9 mph - N/A   Clear
5:53 AM 55.9 °F 35.1 °F 45% 30.04 in 10.0 mi South 12.7 mph - N/A   Clear
6:53 AM 55.9 °F 35.1 °F 45% 30.06 in 10.0 mi South 13.8 mph - N/A   Clear
7:53 AM 57.0 °F 37.0 °F 47% 30.08 in 10.0 mi South 12.7 mph - N/A   Clear
8:53 AM 63.0 °F 37.9 °F 40% 30.08 in 10.0 mi South 9.2 mph - N/A   Clear
9:53 AM 66.9 °F 39.0 °F 36% 30.07 in 10.0 mi South 10.4 mph - N/A   Clear
10:53 AM 69.1 °F 39.9 °F 35% 30.06 in 10.0 mi South 5.8 mph - N/A   Clear
11:53 AM 73.9 °F 41.0 °F 30% 30.04 in 10.0 mi South 10.4 mph - N/A   Clear
12:53 PM 77.0 °F 39.0 °F 25% 29.99 in 10.0 mi South 8.1 mph 20.7 mph N/A   Clear
1:53 PM 79.0 °F 41.0 °F 26% 29.97 in 10.0 mi South 15.0 mph 24.2 mph N/A   Clear
2:53 PM 80.1 °F 39.0 °F 23% 29.95 in 10.0 mi SSW 18.4 mph 26.5 mph N/A   Clear
3:53 PM 81.0 °F 37.0 °F 21% 29.92 in 10.0 mi SW 12.7 mph 24.2 mph N/A   Clear
4:53 PM 80.1 °F 36.0 °F 20% 29.92 in 10.0 mi SW 8.1 mph 23.0 mph N/A   Clear
5:53 PM 79.0 °F 36.0 °F 21% 29.91 in 10.0 mi SSW 12.7 mph - N/A   Clear
6:53 PM 75.0 °F 39.0 °F 27% 29.92 in 10.0 mi SSW 13.8 mph 21.9 mph N/A   Partly Cloudy
7:53 PM 73.0 °F 43.0 °F 34% 29.98 in 10.0 mi NNW 8.1 mph - N/A   Overcast
8:53 PM 69.1 °F 48.0 °F 47% 30.01 in 10.0 mi Calm Calm - 0.00 in Rain Light Rain
9:53 PM 64.0 °F 52.0 °F 65% 30.04 in 10.0 mi NW 5.8 mph - 0.00 in Rain Light Rain
10:53 PM 64.9 °F 51.1 °F 61% 30.04 in 10.0 mi Calm Calm - 0.00 in   Overcast
11:53 PM 61.0 °F 51.1 °F 70% 30.04 in 10.0 mi Calm Calm - N/A   Scattered Clouds